This is the latest recevied weather packets stored in our database for station/object NEWPRT. If no packets are shown the sender has not sent any weather packets the latest 10 day(s).
| Time | Temp. | Humidity | Pressure | Rain* | Wind** | Luminosity | Snow |
|---|---|---|---|---|---|---|---|
| 1777602391 | - | 79% | 1017.1 hPa | 0 mm | - | - | - |
| 1777602068 | - | 79% | 1017 hPa | 0 mm | - | - | - |
| 1777601745 | - | 78% | 1017.1 hPa | 0 mm | - | - | - |
| 1777601422 | - | 78% | 1016.9 hPa | 0 mm | - | - | - |
| 1777601099 | - | 76% | 1017 hPa | 0 mm | - | - | - |
| 1777600776 | - | 73% | 1017 hPa | 0 mm | - | - | - |
| 1777600453 | - | 75% | 1017.2 hPa | 0 mm | - | - | - |
| 1777600130 | - | 73% | 1017.1 hPa | 0 mm | - | - | - |
| 1777599807 | - | 74% | 1017.2 hPa | 0 mm | - | - | - |
| 1777599484 | - | 75% | 1017.2 hPa | 0 mm | - | - | - |
| 1777599160 | - | 73% | 1017.4 hPa | 0 mm | - | - | - |
| 1777598838 | - | 71% | 1017.4 hPa | 0 mm | - | - | - |
| 1777598515 | - | 68% | 1017.5 hPa | 0 mm | - | - | - |
| 1777598192 | - | 70% | 1017.6 hPa | 0 mm | - | - | - |
| 1777597869 | - | 68% | 1017.5 hPa | 0 mm | - | - | - |
| 1777597545 | - | 67% | 1017.6 hPa | 0 mm | - | - | - |
| 1777597223 | - | 68% | 1017.8 hPa | 0 mm | - | - | - |
| 1777596899 | - | 68% | 1017.8 hPa | 0 mm | - | - | - |
| 1777596576 | - | 67% | 1017.6 hPa | 0 mm | - | - | - |
| 1777596253 | - | 67% | 1017.8 hPa | 0 mm | - | - | - |
| 1777595932 | - | 66% | 1017.8 hPa | 0 mm | - | - | - |
| 1777595607 | - | 67% | 1017.9 hPa | 0 mm | - | - | - |
| 1777595284 | - | 68% | 1017.9 hPa | 0 mm | - | - | - |
| 1777594961 | - | 68% | 1018 hPa | 0 mm | - | - | - |
| 1777594638 | - | 66% | 1018.1 hPa | 0 mm | - | - | - |
* Rain latest hour (hover to see other rain measurements)
** Current wind speed in m/s (hover to see current wind gust speed)